User: anonymous   Login
Location: Unspecified
(0.0000°N, 0.0000°E)
Time: 17:50:09
(UTC+00:00)
Language:

NNS O-32 - Orbit

View from above orbital plane
View from above orbital plane
View from above satellite
View from above satellite

Ground track
Ground track

The orbit data is extracted from the following two-line orbital elements,

1 19071U 88033B   21027.09122414  .00000065  00000-0  11085-3 0  9994
2 19071  90.3566 320.0210 0190226  79.7432 293.6111 13.27661934586788
Epoch (UTC): 27 January 2021 02:11:21
Eccentricity: 0.0190226
inclination: 90.3566°
perigee height: 1012 km
apogee height: 1299 km
right ascension of ascending node: 320.0210°
argument of perigee: 79.7432°
revolutions per day: 13.27661934
mean anomaly at epoch: 293.6111°
orbit number at epoch: 58678

The dashed part of the orbit path shows where the satellite is in the earth's shadow,  

DLR